Location: Gwatt
(46.7204°N, 7.6223°E)
Time: 23:31:53
(UTC+00:00)

Envisat - Pass Details

Date: 30 November 2020
Orbit: 764 x 766 km, 98.1° (Epoch: 19 January)

Event Time Altitude Azimuth Distance (km) Brightness Sun altitude
Rises 17:12:07 0° 190° (S) 3,219 6.6 -14.6°
Reaches altitude 10° 17:14:36 10° 199° (SSW) 2,298 5.9 -15.1°
Maximum altitude 17:19:12 34° 264° (W) 1,241 4.8 -15.8°
Drops below altitude 10° 17:23:50 10° 329° (NNW) 2,314 5.7 -16.6°
Sets 17:26:22 0° 339° (NNW) 3,246 6.3 -17.0°
